Location: Buckhorn Peak
(37.6641°N, 120.1241°W)
Time: 12:37:00
(UTC+00:00)

Cosmos 1733 Rocket - Pass Details

Date: 05 August 2024
Orbit: 598 x 624 km, 82.5° (Epoch: 16 September)

Event Time Altitude Azimuth Distance (km) Brightness Sun altitude
Exits shadow 12:01:19 - 186° (S) 2,343 5.7 -12.6°
Reaches altitude 10° 12:02:11 10° 187° (S) 1,989 5.3 -12.4°
Maximum altitude 12:06:36 88° 274° (W) 629 3.0 -11.7°
Drops below altitude 10° 12:11:03 10° 7° (N) 1,996 6.2 -10.9°
Sets 12:13:16 0° 7° (N) 2,903 7.1 -10.6°
